www.pogodaiklimat.ru

Погода и климат >> Архив погоды >> Россия >> Крым >> Симферополь


АРХИВ ПОГОДЫ в Симферополе

Время (UTC), дата Ветер
(напр.,м/с)
 
Видим.   Явления Облачность Т
(С)
Тd
(С)
f
(%)
Тe
(С)
Тes
(С)
Комфортность P
(гПа)
Po
(гПа)
Тmin
(С)
Tmax
(С)
R
(мм)
R24
(мм)
S
(см)
03 18.08 В 1 10 км 10/0
[Ac trans Ci fib]
+16.6 +11.1 70 +17 +17 прохладно 1012.2 991.0 +15.0
06 18.08 С 2 10 км 10/0
[Ac und]
+18.2 +13.3 73 +19 +21 прохладно 1013.0 991.9 +15.0
09 18.08 СВ 2 10 км 10/8 930 м
[Sc Ci sp]
+21.1 +12.5 58 +23 +26 комфорт 1013.3 992.4
12 18.08 СВ 2 10 км 10/1 1000 м
[Sc Ac und]
+21.9 +12.2 54 +24 +27 комфорт 1013.6 992.7
15 18.08 В 5 10 км слаб. дождь 10/0
[As op]
+20.8 +14.5 67 +24 +24 комфорт 1014.5 993.5 0.0
18 18.08 ЮВ 4 10 км слаб. дождь 10/0
[As op]
+17.1 +14.9 87 +17 +17 прохладно 1016.0 994.7 +22.4 0.7
21 18.08 ЮВ 2 10 км в посл. час дождь 10/0
[Ac As]
+17.0 +15.9 93 +17 +17 по сезону 1016.2 994.9
00 19.08 штиль 0 10 км {дождь} 10/0
[Ac und]
+17.0 +15.7 92 +17 +17 по сезону 1016.6 995.3
03 19.08 штиль 0 10 км 10/0
[Ac und]
+17.8 +15.2 85 +18 +18 по сезону 1017.1 995.9 +16.3 0.8
06 19.08 СВ 3 10 км 8/0
[Ac trans]
+21.5 +15.6 69 +25 +28 комфорт 1017.5 996.5 +16.3 0.1
09 19.08 СВ 5 10 км 3/3 1470 м
[Cu med, cong]
+26.1 +12.9 44 +28 +33 жарко 1016.9 996.2
12 19.08 СВ 5 10 км 3/3 1500 м
[Cu hum]
+28.3 +10.0 32 +29 +33 жарко 1016.3 995.8
15 19.08 СВ 5
{10}
10 км 1/0
[Ac trans]
+27.6 +10.3 34 +28 +29 жарко 1016.5 995.9
18 19.08 В 3 10 км ясно +21.6 +11.0 51 +23 +23 комфорт 1018.2 997.2 +28.8
21 19.08 СВ 2 10 км ясно +19.6 +12.4 63 +22 +22 комфорт 1018.6 997.4
00 20.08 В 3 10 км ясно +18.7 +13.6 72 +20 +20 тепло 1018.2 997.0
03 20.08 В 4 10 км 3/0
[Ac trans]
+16.6 +13.5 82 +16 +16 прохладно 1018.6 997.2 +16.1
06 20.08 СВ 5 10 км 1/0
[Ac trans]
+23.6 +16.6 65 +27 +30 жарко 1018.4 997.6 +16.1
09 20.08 СВ 8-10
{11}
10 км 8/4 840 м
[Cu hum Ac trans]
+27.2 +19.3 62 +33 +34 очень
душно
1018.1 997.5
12 20.08 СВ 10-12
{14}
10 км 4/3 1000 м
[Cu hum Ac trans]
+29.9 +19.0 52 +35 +36 очень
душно
1017.1 996.7
15 20.08 СВ 7-10
{13}
10 км 8/1 1500 м
[Sc Ac trans]
+29.0 +17.5 50 +33 +33 очень
душно
1017.2 996.8
18 20.08 СВ 3
{10}
10 км 6/0
[Ac trans]
+25.2 +17.2 61 +29 +29 душно 1018.2 997.5 +30.8
21 20.08 СВ 4 10 км 8/0
[Ac trans Ci fib]
+23.2 +17.4 70 +29 +29 душно 1017.8 997.0
00 21.08 СВ 5 10 км 6/0
[Ac trans Ci fib]
+22.5 +17.2 72 +27 +27 душно 1017.1 996.2
03 21.08 СВ 6 10 км 4/0
[Ac trans Ci fib]
+21.6 +18.2 81 +26 +26 душно 1016.4 995.5 +21.5
06 21.08 СВ 8-11
{11}
10 км 10/0
[Ac cast Ci sp]
+25.1 +19.5 71 +30 +31 душно 1015.8 995.2 +21.1
09 21.08 СВ 7-11
{11}
10 км 6/0
[Ac cast]
+30.7 +19.4 51 +36 +39 очень
душно
1014.5 994.3
12 21.08 СВ 9-13
{14}
10 км 8/0
[Ac cast]
+32.1 +15.2 36 +34 +35 душно 1013.1 992.9
15 21.08 СВ 8-12
{15}
10 км 10/3 1000 м
[Cb calv Ac lent]
+28.8 +16.4 47 +32 +32 душно 1013.1 992.7
18 21.08 СВ 6
{12}
10 км гроза без осадков {ливн. осадки} 10/4 1200 м
[Cb calv Ac und]
+25.3 +17.8 63 +30 +30 душно 1014.0 993.4 +33.2 0.1
21 21.08 СВ 3
{11}
10 км {гроза, ливн. осадки} 10/3 1200 м
[Cb calv Ac und]
+22.7 +18.0 75 +28 +28 душно 1014.1 993.3
00 22.08 СВ 4 10 км слаб. ливневой дождь {гроза} 10/3 1200 м
[Cb calv Ac und]
+23.2 +18.5 75 +29 +29 душно 1013.7 993.0
03 22.08 В 4 10 км {ливн. осадки} 9/1 1000 м
[Cb calv Ac trans]
+21.4 +18.2 82 +26 +26 душно 1013.4 992.5 +21.3 0.4
06 22.08 СВ 3 10 км {ливн. осадки} 10/1 1000 м
[Cb calv Ac trans Ci sp]
+22.6 +16.2 67 +27 +29 душно 1013.8 993.0 +21.3 0.3
09 22.08 С 6 10 км 10/0
[Ac cast Ci fib]
+30.7 +15.2 39 +33 +37 душно 1013.2 992.9
12 22.08 СВ 7
{12}
10 км 10/0
[Ac trans Ci fib]
+32.8 +14.9 34 +35 +37 душно 1012.7 992.6
15 22.08 СВ 8-12
{13}
10 км 10/0
[Ac trans Ci fib]
+32.2 +10.3 26 +32 +32 жарко 1012.7 992.5
18 22.08 В 3
{12}
10 км 4/0
[Ac trans]
+24.6 +10.9 42 +26 +26 жарко 1014.8 994.1 +34.4
21 22.08 СВ 5 10 км 6/0
[Ci fib]
+21.5 +12.4 56 +24 +24 комфорт 1015.0 994.1
00 23.08 СВ 6 10 км ясно +22.5 +15.1 63 +26 +26 жарко 1015.1 994.2
03 23.08 В 5 10 км 1/0
[Ac lent]
+20.1 +15.7 76 +23 +23 комфорт 1015.5 994.5 +19.8
06 23.08 СВ 7 10 км 1/0
[Ac trans]
+22.6 +17.5 73 +30 +32 очень
душно
1015.6 995.0 +19.8
09 23.08 С 6
{10}
10 км ясно +31.9 +16.6 40 +35 +41 очень
душно
1015.5 995.3
12 23.08 СВ 8-12
{14}
10 км ясно +34.6 +14.0 29 +36 +38 душно 1014.9 994.9
15 23.08 СВ 8-11
{14}
10 км ясно +33.5 +13.6 30 +34 +35 очень
жарко
1015.0 994.9
18 23.08 В 2
{11}
10 км ясно +27.2 +13.5 43 +29 +29 жарко 1016.3 995.7 +35.2
21 23.08 СВ 3 10 км ясно +24.6 +14.4 53 +27 +27 жарко 1016.3 995.6
00 24.08 СВ 5 10 км ясно +22.0 +14.9 64 +25 +25 комфорт 1016.5 995.6
03 24.08 СВ 5 10 км ясно +21.1 +16.9 77 +25 +25 комфорт 1017.0 996.0 +20.4
06 24.08 СВ 7 10 км ясно +26.1 +18.3 62 +31 +32 очень
душно
1017.0 996.4 +20.4
09 24.08 СВ 7-10
{11}
10 км ясно +31.6 +16.8 41 +35 +39 очень
душно
1016.1 995.9
12 24.08 СВ 9-12
{13}
10 км 1/1 1500 м
[Cu hum]
+34.2 +15.6 33 +36 +37 душно 1015.5 995.4
15 24.08 СВ 8-12
{13}
10 км ясно +32.7 +11.8 28 +33 +33 жарко 1015.8 995.6
18 24.08 В 4
{13}
10 км ясно +26.2 +14.3 48 +29 +29 жарко 1017.0 996.4 +34.8
21 24.08 СВ 5 10 км ясно +23.1 +14.1 57 +27 +27 душно 1017.6 996.7
00 25.08 В 4 10 км ясно +22.1 +15.7 67 +26 +26 душно 1017.5 996.6

 

Местоположение метеостанции Симферополь (Крым, Россия): широта 45.03 долгота 33.97 высота над уровнем моря 181 м.

В архиве по умолчанию представлена погода в Симферополе за последнюю неделю. Архивные данные за месяц целиком и за предыдущие месяцы, начиная с января 2011 года, Вы можете получить, выбрав интересующий диапазон дат из раскрывающегося списка и нажав кнопку "Ввод!".


*Определитесь, кто Вы:
робот инопланетянин человек

Внимание! Время в таблицах - всемирное. Для получения местного времени необходимо прибавить поправку, которая равна 3 ч.

Смотрите также архив погоды в соседних городах и на ближайших метеорологических станциях:

Погода в Симферополе город (Крым, Россия) (15 км)
Погода в Почтовом (Крым, Россия) (22 км)
Погода на Ангарском Перевале (Крым, Россия) (43 км)
Погода в Белогорске (Крым, Россия) (50 км)
Погода в Евпатории (Крым, Россия) (50 км)
Погода в Алуште (Крым, Россия) (52 км)
Погода в Севастополе (город Севастополь, Россия) (57 км)
Погода в Клепинино (Крым, Россия) (58 км)
Погода в Никитском саду (Крым, Россия) (61 км)
Погода на Ай-Петри (Крым, Россия) (63 км)

Пояснения к столбцам:

Ветер - указаны скорость ветра в м/с - средняя за 10 мин, порывы в срок и между сроками (в фигурных скобках) и направление, откуда дует ветер: С - северный, СВ - северо-восточный, В - восточный, ЮВ - юго-восточный, Ю - южный, ЮЗ - юго-западный, З - западный, СЗ - северо-западный.
Видимость - горизонтальная дальность видимости в метрах или километрах. При видимости от 1 до 10 км при отсутствии осадков обычно наблюдается дымка, при ухудшении видимости до 1 км и менее - туман. В сухую погоду видимость может ухудшаться дымом, пылью или мглою.
Явления - указаны атмосферные явления, наблюдавшиеся в срок или в последний час перед сроком; фигурными скобками обозначены явления, наблюдавшиеся между сроками (за 1-3 часа до срока); квадратными скобками обозначены град или гололедные отложения с указанием их диаметра в мм.
Облачность - указаны через наклонную черту общая и нижняя облачность в баллах и высота нижней границы облаков в метрах; квадратными скобками обозначены формы облаков: Ci - перистые, Cs - перисто-слоистые, Cc - перисто-кучевые, Ac - высококучевые, As - высокослоистые, Sc - слоисто-кучевые, Ns - слоисто-дождевые, Cu - кучевые, Cb - кучево-дождевые. Подробнее классификацию облаков см. в Атласе облаков (PDF).
T - Температура воздуха - температура, измеренная на высоте 2 м над землей.
Td - Температура точки росы - температура, при понижении до которой содержащийся в воздухе водяной пар достигнет насыщения.
f - Относительная влажность воздуха - влажноcть воздуха, измеренная на высоте 2 м над землей.
Te - Эффективная температура - температура, которую ощущает одетый по сезону человек в тени. Характеристика душности погоды. При расчете учитывается влияние влажности воздуха и скорости ветра на теплоощущения человека.
Tes - Эффективная температура на солнце - температура, которую ощущает человек, с поправкой на солнечный нагрев. Характеристика знойности погоды. Зависит от высоты солнца над горизонтом, облачности и скорости ветра. Ночью, в пасмурную погоду, а также при ветре 12 м/с и более поправка равна нулю.
P - Атмосферное давление - приведенное к уровню моря атмосферное давление.
Po - Атмосферное давление - измеренное на уровне метеостанции атмосферное давление.
Tmin - Минимальная температура - минимум температуры воздуха на высоте 2 м над землей.
Tmax - Максимальная температура - максимум температуры воздуха на высоте 2 м над землей.
R - Количество осадков - Количество выпавших осадков за период времени, мм. При наведении курсора мыши на число - период времени, за который выпало указанное количество осадков.
R24 - Количество осадков - Количество выпавших осадков за 24 часа, мм.
S - Снежный покров - Высота снежного покрова, см. При наведении курсора мыши на число - состояние снежного покрова и степень покрытия местности в баллах.